Location: Des Moines
(41.6010°N, 93.6090°W)
Time: 04:45:29
(UTC-06:00)

ISS - Visible Passes

Search period start: 28 November 2020 00:00
Search period end: 08 December 2020 00:00
Orbit: 418 x 420 km, 51.6° (Epoch: 28 November)

Date Brightness Start Highest point End Pass type
(mag) Time Alt. Az. Time Alt. Az. Time Alt. Az.
28 Nov -1.7 17:23:21 10° WNW 17:25:49 19° NNW 17:28:16 10° NNE visible
28 Nov -0.8 19:01:27 10° NNW 19:01:44 11° NNW 19:01:44 11° NNW visible
29 Nov -1.6 18:13:47 10° NW 18:15:49 15° N 18:16:04 15° N visible
30 Nov -1.6 17:25:58 10° NW 17:28:00 15° N 17:30:03 10° NNE visible
30 Nov -0.8 19:03:08 10° NW 19:03:24 11° NNW 19:03:24 11° NNW visible
01 Dec -1.8 18:15:38 10° NNW 18:17:47 17° N 18:17:47 17° N visible
02 Dec -1.7 17:28:04 10° NNW 17:30:12 16° N 17:32:13 10° NE visible
02 Dec -1.0 19:04:35 10° NW 19:05:11 14° NW 19:05:11 14° NW visible
03 Dec -2.4 18:17:08 10° NW 18:19:42 25° N 18:19:42 25° N visible
04 Dec -2.2 17:29:40 10° NW 17:32:16 20° NNE 17:34:18 13° ENE visible
04 Dec -1.4 19:06:05 10° NW 19:07:17 20° NW 19:07:17 20° NW visible
05 Dec -3.7 18:18:33 10° NW 18:21:51 52° NNE 18:22:02 51° NE visible
06 Dec -3.0 17:31:02 10° NW 17:34:10 35° NNE 17:36:59 12° E visible
06 Dec -1.6 19:07:54 10° WNW 19:09:59 27° WSW 19:09:59 27° WSW visible
07 Dec -3.2 18:20:07 10° WNW 18:23:25 56° SW 18:25:14 23° SSE visible
